When you browse on this site, cookies collect data to enhance your experience and personalize the content and advertising you see.
Visit our Privacy Policy to learn more. By continuing to use the site, you agree to this use of cookies and data.
  • In Slovakia
  • List of Countries
  • For 7 days
  • Water Temperature
  • Satellite Maps
  • Weather Map
  • Weather Widgets
  • user-avatar
    Login

    Hourly Weather Tirana

    Today, 21 January, Monday

    Time Temperature Precipitation Wind Pressure Humidity
    00:00 +7°C° 0 mm 2 mps 753 mmHg 78%
    01:00 +7°C° 0 mm 2 mps 753 mmHg 75%
    02:00 +6°C° 0 mm 2 mps 753 mmHg 74%
    03:00 +6°C° 0 mm 2 mps 753 mmHg 73%
    04:00 +6°C° 0 mm 2 mps 753 mmHg 72%
    05:00 +6°C° 0 mm 2 mps 753 mmHg 71%
    06:00 +6°C° 0 mm 2 mps 753 mmHg 70%
    07:00 +5°C° 0 mm 2 mps 753 mmHg 69%
    08:00 +7°C° 0 mm 2 mps 753 mmHg 65%
    09:00 +9°C° 0 mm 2 mps 753 mmHg 60%
    10:00 +10°C° 0 mm 2 mps 753 mmHg 55%
    11:00 +12°C° 0 mm 2 mps 753 mmHg 52%
    12:00 +13°C° 0 mm 2 mps 753 mmHg 49%
    13:00 +14°C° 0 mm 1 mps 752 mmHg 46%
    14:00 +14°C° 0 mm 1 mps 752 mmHg 50%
    15:00 +13°C° 0 mm 1 mps 752 mmHg 54%
    16:00 +13°C° 0 mm 1 mps 752 mmHg 58%
    17:00 +12°C° 0 mm 2 mps 752 mmHg 62%
    18:00 +10°C° 0 mm 2 mps 752 mmHg 65%
    19:00 +9°C° 0 mm 3 mps 752 mmHg 69%
    20:00 +8°C° 0 mm 3 mps 752 mmHg 69%
    21:00 +8°C° 0 mm 3 mps 753 mmHg 68%
    22:00 +7°C° 0 mm 4 mps 753 mmHg 68%
    23:00 +7°C° 0 mm 4 mps 752 mmHg 68%

    Tomorrow, 22 January, Tuesday

    Time Temperature Precipitation Wind Pressure Humidity
    00:00 +7°C° 0 mm 4 mps 752 mmHg 68%
    01:00 +7°C° 0 mm 4 mps 752 mmHg 68%
    02:00 +7°C° 0.3 mm 4 mps 751 mmHg 69%
    03:00 +7°C° 0.3 mm 4 mps 751 mmHg 70%
    04:00 +7°C° 0.3 mm 5 mps 750 mmHg 71%
    05:00 +7°C° 0.1 mm 5 mps 750 mmHg 71%
    06:00 +7°C° 0.1 mm 5 mps 750 mmHg 71%
    07:00 +7°C° 0.1 mm 6 mps 749 mmHg 71%
    08:00 +8°C° 0.1 mm 6 mps 749 mmHg 67%
    09:00 +9°C° 0.1 mm 6 mps 749 mmHg 64%
    10:00 +10°C° 0.1 mm 6 mps 749 mmHg 60%
    11:00 +10°C° 1 mm 6 mps 748 mmHg 63%
    12:00 +10°C° 1 mm 6 mps 747 mmHg 67%
    13:00 +10°C° 1 mm 6 mps 747 mmHg 70%
    14:00 +10°C° 0.8 mm 6 mps 746 mmHg 72%
    15:00 +9°C° 0.8 mm 6 mps 746 mmHg 74%
    16:00 +9°C° 0.8 mm 6 mps 745 mmHg 76%
    17:00 +8°C° 0.9 mm 6 mps 745 mmHg 78%
    18:00 +8°C° 0.9 mm 6 mps 745 mmHg 80%
    19:00 +8°C° 0.9 mm 7 mps 745 mmHg 82%
    20:00 +8°C° 0.8 mm 6 mps 745 mmHg 82%
    21:00 +7°C° 0.8 mm 6 mps 745 mmHg 83%
    22:00 +7°C° 0.8 mm 5 mps 745 mmHg 84%
    23:00 +7°C° 0.8 mm 6 mps 745 mmHg 85%

    Day after tomorrow, 23 January, Wednesday

    Time Temperature Precipitation Wind Pressure Humidity
    00:00 +7°C° 0.8 mm 6 mps 745 mmHg 87%
    01:00 +5°C° 0.8 mm 6 mps 745 mmHg 89%
    02:00 +5°C° 0.8 mm 6 mps 745 mmHg 89%
    03:00 +5°C° 0.8 mm 6 mps 745 mmHg 90%
    04:00 +5°C° 0.8 mm 6 mps 744 mmHg 90%
    05:00 +5°C° 0.8 mm 5 mps 744 mmHg 89%
    06:00 +5°C° 0.8 mm 5 mps 744 mmHg 88%
    07:00 +5°C° 0.8 mm 5 mps 744 mmHg 87%
    08:00 +5°C° 0.6 mm 6 mps 744 mmHg 81%
    09:00 +8°C° 0.6 mm 6 mps 745 mmHg 74%
    10:00 +9°C° 0.6 mm 7 mps 745 mmHg 68%
    11:00 +10°C° 0.2 mm 7 mps 744 mmHg 65%
    12:00 +11°C° 0.2 mm 7 mps 744 mmHg 61%
    13:00 +11°C° 0.2 mm 7 mps 743 mmHg 58%
    14:00 +12°C° 0.2 mm 5 mps 743 mmHg 60%
    15:00 +11°C° 0.2 mm 4 mps 743 mmHg 63%
    16:00 +11°C° 0.2 mm 3 mps 742 mmHg 65%
    17:00 +10°C° 0.1 mm 3 mps 742 mmHg 66%
    18:00 +9°C° 0.1 mm 2 mps 742 mmHg 68%
    19:00 +9°C° 0.1 mm 1 mps 742 mmHg 69%
    20:00 +8°C° 0 mm 2 mps 742 mmHg 70%
    21:00 +7°C° 0 mm 2 mps 742 mmHg 70%
    22:00 +7°C° 0 mm 2 mps 742 mmHg 71%
    23:00 +7°C° 0 mm 2 mps 741 mmHg 71%

    24 January, Thursday

    Time Temperature Precipitation Wind Pressure Humidity
    00:00 +7°C° 0 mm 3 mps 741 mmHg 72%
    01:00 +7°C° 0 mm 3 mps 740 mmHg 72%
    02:00 +7°C° 0.2 mm 2 mps 739 mmHg 75%
    03:00 +7°C° 0.2 mm 2 mps 739 mmHg 77%
    04:00 +7°C° 0.2 mm 2 mps 738 mmHg 80%
    05:00 +7°C° 0.2 mm 2 mps 738 mmHg 79%
    06:00 +7°C° 0.2 mm 2 mps 738 mmHg 79%
    07:00 +7°C° 0.2 mm 2 mps 738 mmHg 79%
    08:00 +8°C° 0.6 mm 2 mps 738 mmHg 76%
    09:00 +10°C° 0.6 mm 1 mps 738 mmHg 73%
    10:00 +10°C° 0.6 mm 1 mps 738 mmHg 70%
    11:00 +11°C° 0.5 mm 1 mps 737 mmHg 70%
    12:00 +11°C° 0.5 mm 1 mps 737 mmHg 70%
    13:00 +10°C° 0.5 mm 2 mps 737 mmHg 71%
    14:00 +10°C° 0 mm 2 mps 737 mmHg 74%
    15:00 +10°C° 0 mm 2 mps 738 mmHg 77%
    16:00 +11°C° 0 mm 1 mps 738 mmHg 80%
    17:00 +9°C° 0 mm 2 mps 738 mmHg 80%
    18:00 +9°C° 0 mm 3 mps 738 mmHg 80%
    19:00 +8°C° 0 mm 4 mps 739 mmHg 81%
    20:00 +8°C° 0 mm 3 mps 739 mmHg 79%
    21:00 +8°C° 0 mm 2 mps 739 mmHg 78%
    22:00 +8°C° 0 mm 2 mps 739 mmHg 77%
    23:00 +7°C° 0 mm 3 mps 739 mmHg 77%

    25 January, Friday

    Time Temperature Precipitation Wind Pressure Humidity
    00:00 +6°C° 0 mm 4 mps 739 mmHg 76%
    01:00 +6°C° 0 mm 4 mps 739 mmHg 75%
    02:00 +6°C° 0.2 mm 5 mps 739 mmHg 78%
    03:00 +6°C° 0.2 mm 5 mps 740 mmHg 80%
    04:00 +5°C° 0.2 mm 5 mps 740 mmHg 83%
    05:00 +5°C° 0.4 mm 4 mps 740 mmHg 83%
    06:00 +5°C° 0.4 mm 4 mps 741 mmHg 83%
    07:00 +5°C° 0.4 mm 4 mps 741 mmHg 83%
    08:00 +6°C° 0.2 mm 4 mps 741 mmHg 81%
    09:00 +6°C° 0.2 mm 4 mps 741 mmHg 79%
    10:00 +7°C° 0.2 mm 4 mps 742 mmHg 78%
    11:00 +8°C° 0.2 mm 4 mps 742 mmHg 75%
    12:00 +8°C° 0.2 mm 4 mps 742 mmHg 72%
    13:00 +10°C° 0.2 mm 4 mps 742 mmHg 68%
    14:00 +10°C° 0 mm 4 mps 742 mmHg 70%
    15:00 +10°C° 0 mm 4 mps 742 mmHg 71%
    16:00 +8°C° 0 mm 5 mps 742 mmHg 72%
    17:00 +8°C° 0 mm 4 mps 742 mmHg 74%
    18:00 +7°C° 0 mm 4 mps 742 mmHg 75%
    19:00 +6°C° 0 mm 4 mps 743 mmHg 76%
    20:00 +6°C° 0 mm 4 mps 743 mmHg 76%
    21:00 +5°C° 0 mm 5 mps 743 mmHg 76%
    22:00 +5°C° 0 mm 5 mps 743 mmHg 75%
    23:00 +5°C° 0 mm 5 mps 743 mmHg 75%

    26 January, Saturday

    Time Temperature Precipitation Wind Pressure Humidity
    00:00 +3°C° 0 mm 5 mps 744 mmHg 74%
    01:00 +3°C° 0 mm 5 mps 744 mmHg 73%
    02:00 +3°C° 0 mm 5 mps 744 mmHg 73%
    03:00 +2°C° 0 mm 5 mps 744 mmHg 72%
    04:00 +2°C° 0 mm 5 mps 744 mmHg 72%
    05:00 +2°C° 0 mm 5 mps 744 mmHg 71%
    06:00 +1°C° 0 mm 5 mps 744 mmHg 71%
    07:00 +1°C° 0 mm 5 mps 744 mmHg 70%
    08:00 +3°C° 0 mm 5 mps 745 mmHg 65%
    09:00 +5°C° 0 mm 5 mps 745 mmHg 60%
    10:00 +6°C° 0 mm 5 mps 746 mmHg 55%
    11:00 +7°C° 0 mm 5 mps 746 mmHg 52%
    12:00 +8°C° 0 mm 5 mps 746 mmHg 49%
    13:00 +9°C° 0 mm 5 mps 745 mmHg 46%
    14:00 +9°C° 0 mm 5 mps 746 mmHg 50%
    15:00 +8°C° 0 mm 5 mps 746 mmHg 54%
    16:00 +8°C° 0 mm 5 mps 746 mmHg 58%
    17:00 +7°C° 0 mm 5 mps 746 mmHg 61%
    18:00 +6°C° 0 mm 5 mps 747 mmHg 63%
    19:00 +4°C° 0 mm 4 mps 747 mmHg 66%
    20:00 +4°C° 0 mm 4 mps 747 mmHg 67%
    21:00 +4°C° 0 mm 4 mps 747 mmHg 68%
    22:00 +3°C° 0 mm 3 mps 748 mmHg 68%
    23:00 +3°C° 0 mm 3 mps 748 mmHg 68%
    Show more